When you browse on this site, cookies collect data to enhance your experience and personalize the content and advertising you see.
Visit our Privacy Policy to learn more. By continuing to use the site, you agree to this use of cookies and data.
  • In Czech Republic
  • List of Countries
  • For 7 days
  • Water Temperature
  • Weather Map
  • Weather Widgets
  • user-avatar
    Login

    Hourly Weather Wiktoria

    Today, 1 April, Wednesday

    Time Temperature Precipitation Wind Pressure Humidity
    00:00 +15°C° 0 mm 1 mps 751 mmHg 62%
    01:00 +15°C° 0 mm 1 mps 751 mmHg 64%
    02:00 +15°C° 0 mm 1 mps 751 mmHg 66%
    03:00 +14°C° 0 mm 2 mps 751 mmHg 68%
    04:00 +14°C° 0 mm 2 mps 751 mmHg 69%
    05:00 +14°C° 0 mm 2 mps 751 mmHg 70%
    06:00 +13°C° 0 mm 2 mps 751 mmHg 71%
    07:00 +13°C° 0 mm 2 mps 752 mmHg 72%
    08:00 +16°C° 0 mm 2 mps 752 mmHg 63%
    09:00 +19°C° 0 mm 2 mps 751 mmHg 55%
    10:00 +21°C° 0 mm 2 mps 751 mmHg 44%
    11:00 +24°C° 0 mm 3 mps 751 mmHg 40%
    12:00 +25°C° 0 mm 3 mps 750 mmHg 37%
    13:00 +26°C° 0 mm 3 mps 750 mmHg 33%
    14:00 +27°C° 0 mm 3 mps 749 mmHg 32%
    15:00 +27°C° 0 mm 3 mps 748 mmHg 31%
    16:00 +26°C° 0 mm 3 mps 748 mmHg 30%
    17:00 +25°C° 0 mm 3 mps 748 mmHg 33%
    18:00 +24°C° 0 mm 2 mps 749 mmHg 36%
    19:00 +21°C° 0 mm 2 mps 749 mmHg 39%
    20:00 +20°C° 0.2 mm 2 mps 749 mmHg 47%
    21:00 +19°C° 0.2 mm 2 mps 749 mmHg 56%
    22:00 +19°C° 0.2 mm 1 mps 749 mmHg 65%
    23:00 +17°C° 1.6 mm 2 mps 748 mmHg 72%

    Tomorrow, 2 April, Thursday

    Time Temperature Precipitation Wind Pressure Humidity
    00:00 +17°C° 1.6 mm 3 mps 748 mmHg 80%
    01:00 +15°C° 1.6 mm 4 mps 747 mmHg 87%
    02:00 +15°C° 5 mm 4 mps 747 mmHg 90%
    03:00 +15°C° 5 mm 4 mps 746 mmHg 93%
    04:00 +15°C° 5 mm 4 mps 746 mmHg 96%
    05:00 +15°C° 3.9 mm 4 mps 746 mmHg 95%
    06:00 +15°C° 3.9 mm 5 mps 745 mmHg 95%
    07:00 +15°C° 3.9 mm 5 mps 745 mmHg 95%
    08:00 +15°C° 3.1 mm 5 mps 745 mmHg 95%
    09:00 +15°C° 3.1 mm 5 mps 745 mmHg 95%
    10:00 +15°C° 3.1 mm 5 mps 745 mmHg 95%
    11:00 +17°C° 0.3 mm 4 mps 745 mmHg 91%
    12:00 +19°C° 0.3 mm 4 mps 744 mmHg 87%
    13:00 +20°C° 0.3 mm 3 mps 743 mmHg 83%
    14:00 +21°C° 1 mm 3 mps 743 mmHg 78%
    15:00 +21°C° 1 mm 3 mps 743 mmHg 74%
    16:00 +22°C° 1 mm 3 mps 742 mmHg 69%
    17:00 +21°C° 0.2 mm 3 mps 743 mmHg 73%
    18:00 +20°C° 0.2 mm 2 mps 743 mmHg 76%
    19:00 +19°C° 0.2 mm 1 mps 743 mmHg 80%
    20:00 +19°C° 0 mm 1 mps 744 mmHg 81%
    21:00 +18°C° 0 mm 1 mps 744 mmHg 83%
    22:00 +18°C° 0 mm 1 mps 744 mmHg 84%
    23:00 +16°C° 0 mm 1 mps 744 mmHg 84%

    Day after tomorrow, 3 April, Friday

    Time Temperature Precipitation Wind Pressure Humidity
    00:00 +15°C° 0 mm 0 mps 744 mmHg 84%
    01:00 +15°C° 0 mm 0 mps 744 mmHg 84%
    02:00 +16°C° 0 mm 1 mps 744 mmHg 85%
    03:00 +16°C° 0 mm 1 mps 743 mmHg 85%
    04:00 +16°C° 0 mm 1 mps 742 mmHg 85%
    05:00 +16°C° 0 mm 2 mps 743 mmHg 86%
    06:00 +16°C° 0 mm 2 mps 743 mmHg 87%
    07:00 +16°C° 0 mm 2 mps 743 mmHg 88%
    08:00 +17°C° 0 mm 3 mps 743 mmHg 83%
    09:00 +18°C° 0 mm 3 mps 743 mmHg 78%
    10:00 +19°C° 0 mm 4 mps 742 mmHg 74%
    11:00 +20°C° 0.1 mm 5 mps 742 mmHg 69%
    12:00 +21°C° 0.1 mm 5 mps 741 mmHg 65%
    13:00 +22°C° 0.1 mm 6 mps 741 mmHg 60%
    14:00 +22°C° 0.3 mm 6 mps 740 mmHg 60%
    15:00 +22°C° 0.3 mm 6 mps 739 mmHg 59%
    16:00 +22°C° 0.3 mm 5 mps 739 mmHg 58%
    17:00 +21°C° 0 mm 5 mps 738 mmHg 64%
    18:00 +19°C° 0 mm 6 mps 738 mmHg 69%
    19:00 +17°C° 0 mm 6 mps 738 mmHg 74%
    20:00 +17°C° 0.7 mm 5 mps 738 mmHg 79%
    21:00 +16°C° 0.7 mm 5 mps 738 mmHg 83%
    22:00 +16°C° 0.7 mm 5 mps 738 mmHg 88%
    23:00 +15°C° 3 mm 5 mps 737 mmHg 89%

    4 April, Saturday

    Time Temperature Precipitation Wind Pressure Humidity
    00:00 +15°C° 3 mm 6 mps 737 mmHg 89%
    01:00 +15°C° 3 mm 6 mps 737 mmHg 90%
    02:00 +14°C° 0.5 mm 5 mps 737 mmHg 88%
    03:00 +13°C° 0.5 mm 5 mps 738 mmHg 87%
    04:00 +12°C° 0.5 mm 5 mps 738 mmHg 85%
    05:00 +12°C° 0 mm 4 mps 738 mmHg 86%
    06:00 +11°C° 0 mm 4 mps 739 mmHg 87%
    07:00 +11°C° 0 mm 4 mps 740 mmHg 88%
    08:00 +12°C° 0 mm 5 mps 740 mmHg 81%
    09:00 +13°C° 0 mm 5 mps 741 mmHg 74%
    10:00 +14°C° 0 mm 6 mps 741 mmHg 68%
    11:00 +15°C° 0.2 mm 7 mps 741 mmHg 63%
    12:00 +15°C° 0.2 mm 8 mps 741 mmHg 58%
    13:00 +15°C° 0.2 mm 8 mps 741 mmHg 53%
    14:00 +13°C° 0.2 mm 8 mps 741 mmHg 58%
    15:00 +12°C° 0.2 mm 8 mps 741 mmHg 64%
    16:00 +12°C° 0.2 mm 7 mps 741 mmHg 69%
    17:00 +11°C° 0.3 mm 6 mps 742 mmHg 71%
    18:00 +9°C° 0.3 mm 6 mps 743 mmHg 74%
    19:00 +8°C° 0.3 mm 5 mps 745 mmHg 76%
    20:00 +8°C° 0 mm 4 mps 745 mmHg 77%
    21:00 +7°C° 0 mm 4 mps 746 mmHg 78%
    22:00 +8°C° 0 mm 3 mps 747 mmHg 79%
    23:00 +8°C° 0 mm 3 mps 747 mmHg 78%

    5 April, Sunday

    Time Temperature Precipitation Wind Pressure Humidity
    00:00 +7°C° 0 mm 3 mps 748 mmHg 76%
    01:00 +7°C° 0 mm 3 mps 748 mmHg 75%
    02:00 +7°C° 0 mm 3 mps 748 mmHg 76%
    03:00 +5°C° 0 mm 3 mps 748 mmHg 78%
    04:00 +5°C° 0 mm 3 mps 748 mmHg 79%
    05:00 +6°C° 0 mm 2 mps 748 mmHg 80%
    06:00 +6°C° 0 mm 2 mps 749 mmHg 81%
    07:00 +6°C° 0 mm 2 mps 749 mmHg 83%
    08:00 +8°C° 0 mm 3 mps 749 mmHg 76%
    09:00 +10°C° 0 mm 4 mps 749 mmHg 70%
    10:00 +12°C° 0 mm 5 mps 749 mmHg 63%
    11:00 +13°C° 0 mm 6 mps 749 mmHg 60%
    12:00 +14°C° 0 mm 7 mps 749 mmHg 57%
    13:00 +16°C° 0 mm 7 mps 749 mmHg 53%
    14:00 +15°C° 0 mm 7 mps 749 mmHg 55%
    15:00 +15°C° 0 mm 7 mps 749 mmHg 57%
    16:00 +15°C° 0 mm 6 mps 748 mmHg 58%
    17:00 +14°C° 0.1 mm 5 mps 749 mmHg 62%
    18:00 +14°C° 0.1 mm 5 mps 749 mmHg 66%
    19:00 +13°C° 0.1 mm 4 mps 750 mmHg 70%
    20:00 +13°C° 0.1 mm 4 mps 750 mmHg 75%
    21:00 +12°C° 0.1 mm 3 mps 751 mmHg 79%
    22:00 +12°C° 0.1 mm 3 mps 751 mmHg 83%
    23:00 +11°C° 0 mm 3 mps 752 mmHg 84%

    6 April, Monday

    Time Temperature Precipitation Wind Pressure Humidity
    00:00 +10°C° 0 mm 3 mps 752 mmHg 86%
    01:00 +10°C° 0 mm 2 mps 752 mmHg 87%
    02:00 +9°C° 0 mm 2 mps 753 mmHg 88%
    03:00 +8°C° 0 mm 2 mps 753 mmHg 89%
    04:00 +8°C° 0 mm 2 mps 753 mmHg 90%
    05:00 +8°C° 0 mm 2 mps 753 mmHg 89%
    06:00 +7°C° 0 mm 2 mps 754 mmHg 89%
    07:00 +7°C° 0 mm 2 mps 755 mmHg 89%
    08:00 +9°C° 0 mm 3 mps 755 mmHg 79%
    09:00 +11°C° 0 mm 4 mps 755 mmHg 70%
    10:00 +13°C° 0 mm 5 mps 755 mmHg 60%
    11:00 +14°C° 0 mm 4 mps 755 mmHg 57%
    12:00 +15°C° 0 mm 4 mps 755 mmHg 54%
    13:00 +17°C° 0 mm 4 mps 755 mmHg 50%
    14:00 +17°C° 0 mm 4 mps 755 mmHg 50%
    15:00 +17°C° 0 mm 4 mps 755 mmHg 51%
    16:00 +16°C° 0 mm 5 mps 754 mmHg 51%
    17:00 +14°C° 0 mm 4 mps 755 mmHg 56%
    18:00 +13°C° 0 mm 4 mps 755 mmHg 61%
    19:00 +11°C° 0 mm 4 mps 755 mmHg 67%
    20:00 +11°C° 0 mm 4 mps 756 mmHg 68%
    21:00 +10°C° 0 mm 4 mps 756 mmHg 70%
    22:00 +8°C° 0 mm 4 mps 756 mmHg 72%
    23:00 +8°C° 0 mm 4 mps 756 mmHg 74%
    Show more